Temp
13 13 13 14 13 12 12 13 14 15 16 17 17 17 18 18 19 19 20 20 20 21 21 22 22 23 24 25 28 27 28 27 26 23 25 25 26 28 30 29 29 30 30 29 29 29 29
12 12 13 13 12 12 13 14 15 15 16 16 17 17 18 18 19 19 20 20 21 21 21 22 22 23 23 28 27 27 27 26 24 24 25 26 28 27 28 29 30 30 30 30 29 29 28
11 12 12 12 13 13 14 15 15 16 16 16 17 17 17 18 19 19 20 20 21 21 22 22 22 23 22 28 26 27 25 25 24 25 26 26 25 27 29 29 28 30 29 30 29 29 29
11 11 12 12 12 13 14 14 15 15 16 16 16 17 17 18 19 19 19 20 21 21 22 22 22 22 26 26 25 24 23 24 24 25 25 25 26 28 28 28 29 30 30 29 29 28 28
12 12 13 13 13 14 14 14 15 15 15 16 16 17 17 18 19 19 20 20 21 21 21 21 21 21 27 25 24 23 24 25 24 25 25 25 27 29 28 30 30 29 28 29 28 28 28
12 13 13 13 13 14 14 14 15 15 15 16 16 17 17 18 19 19 20 20 20 21 21 21 22 22 24 26 25 24 24 25 25 26 26 27 29 29 30 26 27 28 27 26 28 29 29
12 12 12 13 13 14 14 15 15 15 16 16 16 17 18 18 19 19 20 20 19 19 20 26 26 25 25 24 23 24 24 25 26 27 29 29 30 30 29 31 30 29 27 29 29 27 28
11 12 12 12 13 13 13 14 15 15 16 16 17 17 18 18 19 19 19 20 20 20 25 23 23 22 23 24 26 25 25 27 27 29 30 30 30 31 31 29 31 30 29 28 25 24 27
11 11 12 12 13 13 13 13 14 15 15 16 16 17 18 19 19 19 19 19 20 21 24 25 23 24 25 24 28 26 26 28 29 30 30 31 31 31 31 31 30 31 30 29 28 26 28
11 11 11 12 12 13 13 13 14 15 15 16 16 18 18 19 19 19 19 20 20 21 27 27 25 25 24 26 28 27 26 29 30 31 31 32 31 31 31 31 30 30 29 29 27 27 26
10 10 11 12 12 13 13 14 14 15 15 16 16 18 18 18 19 19 19 20 20 20 27 27 26 23 25 28 28 27 26 28 30 31 31 31 30 30 31 31 31 30 29 29 28 28 28
9 10 10 11 12 12 13 13 14 15 15 16 17 18 19 19 19 19 20 20 20 25 27 27 26 26 27 28 29 27 27 27 30 31 31 32 31 32 32 30 30 29 29 28 28 28 27
9 10 10 11 11 12 13 13 14 15 16 17 18 19 19 19 18 19 20 20 25 26 28 27 28 28 29 29 29 29 29 29 29 29 29 31 30 30 30 29 29 29 30 29 28 27 28
10 10 10 10 11 12 12 13 14 15 16 17 18 18 18 18 19 19 19 24 25 28 28 28 28 28 28 30 30 30 30 29 31 31 31 30 29 29 30 31 30 29 31 29 27 28 30
10 9 9 10 11 11 12 13 14 15 16 17 18 18 18 18 18 19 21 25 27 27 26 27 27 28 28 29 30 29 30 31 31 32 30 30 30 31 31 31 31 29 29 30 30 31 30
9 9 9 10 10 11 12 12 13 14 16 17 18 17 17 18 18 18 24 24 26 25 25 26 28 29 29 29 29 29 30 31 32 31 32 31 29 31 30 29 28 30 31 30 30 28 27
8 9 9 9 10 11 11 12 13 14 16 17 18 20 17 18 19 21 25 26 25 24 23 26 27 28 29 29 29 30 30 28 31 31 31 32 31 31 30 29 30 29 29 29 31 31 29
8 9 8 9 9 10 11 12 12 14 15 17 16 23 17 18 22 22 25 24 20 24 23 25 26 27 29 29 29 30 30 30 25 30 29 31 31 30 29 31 32 32 31 31 30 28 30
6 7 8 9 9 9 10 11 12 13 14 15 17 18 17 17 23 24 22 23 22 24 24 25 25 25 25 27 27 29 29 25 24 28 29 31 30 30 31 30 29 30 30 31 32 32 30
5 5 6 8 8 8 10 11 11 12 13 14 15 21 19 18 18 22 23 23 23 20 22 22 24 24 25 26 26 26 27 25 24 25 21 25 31 31 30 31 32 29 30 31 32 31 31
5 4 5 6 7 8 9 10 11 12 13 13 14 18 14 21 20 21 21 22 23 22 21 21 23 24 26 26 26 26 26 25 24 22 24 29 29 31 31 32 32 32 31 30 30 32 31
4 4 4 5 6 7 8 9 10 11 12 11 14 15 14 17 16 19 16 21 22 21 21 23 23 22 23 25 24 25 25 26 26 26 27 28 29 29 29 31 31 31 32 32 32 32 32
3 4 4 4 5 6 7 7 8 9 11 10 9 10 12 13 18 19 21 20 20 19 18 19 21 22 23 20 19 20 20 22 23 24 26 27 29 28 28 31 30 30 31 32 33 33 32
4 3 4 4 5 6 6 7 7 8 8 7 7 8 13 18 17 18 16 16 18 17 19 18 18 20 16 15 18 18 20 22 22 23 24 26 26 27 28 29 27 31 34 33 32 33 33
3 4 4 4 5 5 6 6 6 7 7 6 7 7 11 16 14 15 15 16 15 14 16 17 16 14 15 18 22 22 24 23 24 24 25 25 26 27 27 28 29 31 32 31 32 32 34
3 4 4 4 4 5 5 5 6 6 6 6 6 7 8 12 15 11 14 13 16 17 16 15 13 13 15 20 21 20 23 24 25 23 24 26 25 25 27 26 27 30 32 30 32 31 32
2 3 4 4 4 4 5 5 5 5 5 5 5 6 7 10 11 10 13 13 12 14 16 15 14 15 14 19 20 21 23 24 23 24 22 23 23 23 25 26 28 31 30 30 29 30 28
2 3 4 4 4 4 5 5 5 5 5 5 4 5 5 8 10 8 9 10 10 12 15 13 14 14 16 17 20 21 21 23 22 24 25 23 23 25 24 25 25 28 29 29 27 24 24
2 3 4 4 4 4 5 5 5 5 5 5 5 4 5 5 8 6 7 7 8 9 11 12 13 14 16 18 19 20 19 20 21 22 23 23 26 26 26 27 26 25 25 22 23 23 22
Height
1541 1539 1537 1534 1533 1531 1528 1526 1524 1522 1520 1518 1516 1514 1512 1510 1509 1508 1507 1506 1506 1506 1506 1506 1506 1507 1509 1510 1508 1506 1508 1511 1514 1518 1521 1523 1524 1522 1517 1518 1518 1517 1516 1520 1523 1524 1526
1541 1539 1536 1535 1533 1531 1528 1526 1523 1520 1518 1515 1513 1512 1510 1508 1507 1505 1503 1503 1503 1503 1504 1504 1505 1506 1508 1508 1505 1505 1507 1510 1515 1518 1521 1523 1522 1522 1520 1517 1517 1517 1518 1520 1523 1525 1528
1540 1538 1536 1534 1532 1529 1527 1525 1522 1520 1517 1515 1512 1510 1507 1505 1504 1502 1500 1500 1500 1501 1501 1502 1503 1504 1506 1504 1503 1504 1506 1511 1516 1519 1521 1521 1522 1522 1518 1517 1521 1517 1519 1521 1524 1526 1528
1540 1538 1535 1532 1530 1527 1525 1523 1521 1518 1515 1513 1511 1508 1506 1504 1501 1499 1498 1498 1498 1498 1499 1500 1502 1504 1503 1501 1502 1503 1508 1513 1516 1519 1521 1520 1521 1520 1519 1520 1521 1518 1517 1525 1525 1527 1530
1541 1538 1535 1532 1529 1526 1524 1521 1519 1516 1513 1511 1509 1506 1504 1502 1499 1497 1496 1495 1495 1496 1497 1499 1502 1503 1499 1499 1502 1505 1508 1512 1515 1518 1520 1520 1520 1517 1520 1513 1515 1519 1524 1522 1526 1525 1529
1541 1537 1534 1531 1528 1526 1523 1520 1517 1515 1512 1509 1507 1504 1502 1499 1497 1495 1494 1494 1494 1495 1497 1499 1501 1505 1498 1498 1501 1504 1508 1513 1515 1517 1520 1519 1517 1516 1513 1522 1532 1528 1528 1530 1526 1521 1524
1540 1536 1533 1530 1527 1524 1521 1518 1515 1513 1510 1507 1505 1502 1499 1497 1495 1493 1494 1494 1498 1498 1495 1491 1492 1494 1495 1497 1499 1503 1507 1511 1514 1515 1512 1513 1511 1510 1513 1506 1510 1517 1524 1516 1516 1521 1524
1539 1536 1532 1529 1526 1523 1520 1517 1514 1511 1507 1505 1502 1499 1497 1495 1493 1492 1493 1495 1493 1493 1490 1490 1492 1494 1495 1495 1498 1501 1506 1508 1510 1507 1507 1510 1508 1500 1504 1510 1508 1508 1517 1520 1525 1527 1526
1539 1535 1532 1528 1525 1522 1518 1515 1512 1508 1505 1502 1499 1497 1495 1493 1491 1491 1492 1494 1492 1491 1489 1486 1488 1491 1493 1496 1493 1496 1501 1501 1501 1501 1502 1500 1496 1498 1504 1505 1507 1504 1511 1512 1518 1523 1520
1538 1535 1531 1527 1524 1520 1517 1513 1510 1506 1502 1499 1496 1494 1493 1491 1493 1491 1493 1492 1491 1491 1481 1477 1483 1485 1489 1491 1492 1494 1498 1499 1496 1496 1497 1496 1498 1501 1501 1502 1505 1509 1508 1511 1518 1523 1531
1537 1533 1530 1526 1522 1519 1515 1511 1507 1503 1500 1496 1493 1491 1490 1490 1489 1492 1492 1491 1491 1492 1486 1473 1480 1481 1484 1486 1482 1491 1496 1497 1492 1492 1495 1497 1498 1501 1500 1497 1499 1505 1508 1510 1512 1516 1515
1535 1532 1528 1524 1521 1517 1513 1509 1505 1501 1497 1493 1490 1487 1486 1486 1487 1488 1489 1491 1493 1489 1481 1471 1473 1476 1480 1481 1480 1487 1492 1497 1492 1490 1493 1487 1494 1493 1492 1499 1502 1508 1510 1511 1511 1512 1523
1533 1530 1527 1523 1519 1515 1511 1506 1502 1498 1494 1490 1486 1484 1483 1483 1487 1486 1489 1491 1485 1479 1464 1470 1467 1470 1469 1474 1476 1480 1485 1488 1490 1499 1496 1490 1493 1496 1499 1505 1507 1506 1504 1516 1521 1525 1518
1532 1528 1525 1521 1517 1513 1508 1504 1500 1495 1490 1487 1484 1482 1482 1482 1483 1485 1488 1487 1485 1462 1462 1465 1464 1466 1468 1466 1470 1474 1477 1482 1480 1481 1483 1494 1506 1495 1494 1493 1498 1503 1498 1513 1533 1524 1505
1529 1526 1523 1519 1515 1511 1507 1502 1497 1493 1488 1484 1482 1481 1482 1482 1483 1485 1488 1479 1462 1464 1467 1465 1465 1465 1466 1465 1466 1471 1471 1472 1471 1474 1486 1487 1492 1482 1489 1492 1493 1500 1508 1496 1501 1490 1501
1528 1524 1521 1518 1514 1510 1505 1500 1495 1491 1486 1482 1480 1482 1482 1481 1483 1486 1482 1473 1468 1471 1470 1467 1463 1457 1463 1463 1469 1468 1467 1464 1465 1472 1474 1476 1494 1478 1487 1496 1498 1495 1491 1502 1496 1517 1522
1526 1523 1519 1516 1513 1509 1505 1499 1494 1489 1484 1481 1480 1481 1481 1481 1483 1484 1473 1466 1470 1473 1474 1468 1461 1459 1453 1456 1459 1461 1460 1472 1466 1470 1474 1474 1482 1481 1484 1492 1487 1497 1498 1497 1491 1489 1506
1524 1521 1518 1514 1511 1507 1504 1499 1493 1488 1483 1481 1480 1475 1479 1481 1481 1477 1469 1471 1477 1471 1474 1470 1468 1462 1456 1454 1457 1456 1458 1459 1476 1470 1475 1472 1473 1483 1484 1474 1474 1476 1480 1481 1493 1501 1488
1523 1520 1517 1513 1510 1506 1502 1498 1494 1489 1484 1481 1482 1480 1479 1480 1470 1468 1473 1471 1474 1471 1472 1469 1466 1468 1467 1461 1465 1459 1460 1474 1476 1473 1470 1468 1475 1481 1478 1479 1481 1479 1480 1476 1472 1475 1490
1521 1518 1515 1512 1508 1504 1501 1498 1494 1490 1486 1484 1484 1474 1478 1479 1477 1471 1468 1467 1470 1476 1475 1474 1470 1469 1466 1464 1463 1467 1466 1474 1476 1475 1477 1474 1466 1468 1473 1470 1464 1481 1475 1475 1473 1481 1482
1520 1517 1514 1511 1507 1504 1500 1497 1494 1490 1486 1485 1485 1481 1483 1469 1474 1473 1473 1471 1468 1470 1474 1474 1470 1467 1462 1462 1463 1465 1467 1471 1475 1477 1476 1470 1469 1460 1457 1457 1457 1460 1467 1472 1476 1470 1478
1518 1516 1513 1510 1507 1504 1500 1497 1494 1491 1487 1488 1487 1486 1485 1481 1480 1477 1474 1469 1468 1472 1474 1469 1469 1470 1468 1462 1468 1467 1467 1467 1466 1473 1469 1467 1466 1463 1468 1458 1458 1463 1459 1459 1459 1464 1466
1517 1515 1512 1509 1506 1503 1500 1497 1494 1491 1489 1490 1489 1489 1488 1482 1477 1475 1467 1469 1470 1477 1479 1478 1474 1471 1469 1478 1480 1479 1478 1477 1476 1475 1469 1466 1461 1468 1469 1453 1459 1468 1459 1456 1455 1453 1460
1515 1513 1511 1508 1506 1503 1501 1498 1495 1493 1492 1492 1491 1491 1488 1473 1479 1475 1478 1480 1477 1479 1476 1479 1479 1476 1483 1482 1481 1479 1478 1476 1476 1474 1474 1468 1468 1465 1464 1458 1481 1449 1439 1443 1448 1447 1449
1513 1512 1509 1508 1505 1503 1500 1498 1496 1494 1493 1493 1492 1492 1491 1479 1482 1482 1482 1480 1482 1483 1481 1481 1483 1484 1484 1482 1474 1471 1467 1470 1466 1469 1469 1471 1465 1466 1470 1465 1453 1443 1442 1447 1448 1447 1443
1510 1509 1507 1506 1504 1502 1500 1498 1496 1495 1494 1493 1493 1491 1493 1489 1479 1486 1483 1484 1478 1477 1480 1481 1485 1485 1484 1479 1472 1474 1463 1457 1456 1464 1466 1465 1469 1469 1461 1471 1471 1444 1434 1443 1443 1452 1442
1508 1506 1505 1504 1502 1500 1499 1498 1496 1495 1494 1494 1494 1492 1493 1490 1487 1488 1484 1483 1485 1482 1477 1481 1483 1484 1485 1474 1470 1464 1459 1452 1458 1456 1468 1467 1467 1468 1465 1463 1448 1436 1440 1442 1456 1451 1448
1505 1504 1503 1501 1501 1499 1497 1496 1496 1494 1494 1494 1495 1492 1494 1491 1487 1488 1487 1487 1486 1485 1477 1483 1484 1482 1481 1476 1468 1460 1461 1452 1457 1447 1446 1457 1461 1455 1460 1460 1464 1442 1443 1446 1446 1451 1453
1503 1502 1501 1499 1499 1497 1496 1495 1494 1494 1493 1493 1496 1492 1491 1492 1488 1486 1485 1485 1487 1487 1486 1485 1481 1480 1475 1472 1467 1460 1463 1457 1456 1451 1449 1452 1440 1439 1440 1440 1441 1444 1446 1451 1451 1453 1454
Wind_Speed
12 11 11 11 11 11 12 13 13 13 12 12 11 11 12 11 11 11 11 11 10 8 6 5 4 6 7 7 3 7 16 15 16 17 17 12 9 5 4 2 5 4 1 7 8 10 8
14 12 11 10 10 11 12 12 12 13 13 13 13 13 12 11 11 12 12 11 10 9 7 6 4 6 7 12 9 9 17 19 17 17 15 10 0 2 6 2 4 1 6 12 11 10 9
14 14 13 12 12 13 13 12 12 12 12 12 12 13 13 13 11 11 12 12 10 9 8 7 5 6 8 4 9 9 18 20 17 14 11 8 6 4 1 1 2 10 10 8 9 9 7
16 16 15 15 15 15 15 14 13 13 13 13 12 12 12 12 12 11 12 11 9 9 8 7 5 5 5 14 7 11 20 19 16 12 6 5 4 3 3 5 8 5 8 7 9 11 5
16 16 15 15 15 15 15 14 14 14 14 14 14 14 13 13 12 11 10 9 8 7 6 6 4 5 5 11 10 15 19 19 18 12 5 4 4 3 6 11 10 9 2 5 9 12 7
17 17 16 16 16 15 14 14 14 14 15 15 15 14 13 13 12 9 7 5 3 3 5 3 5 5 7 8 13 17 19 17 18 14 8 9 7 4 5 5 4 4 3 4 9 11 12
19 19 19 18 17 16 15 14 14 14 15 15 15 14 13 12 10 7 3 3 2 3 10 5 4 1 8 8 12 17 21 18 15 15 13 15 10 12 17 7 4 8 7 6 9 8 6
19 19 19 19 18 17 16 16 15 15 15 16 16 15 13 11 8 3 4 2 2 1 5 14 11 6 6 9 12 17 23 17 19 16 17 8 14 6 7 10 10 9 7 4 1 4 10
18 19 19 20 19 18 18 17 17 16 16 17 17 15 12 10 5 6 6 3 1 2 6 6 10 12 11 11 14 25 29 22 20 19 16 16 3 12 9 9 9 7 4 0 10 9 13
18 18 18 19 20 20 19 19 18 17 17 17 17 15 10 6 1 7 5 4 1 1 5 11 9 9 13 11 10 21 30 20 13 18 18 17 11 10 9 8 7 8 1 5 5 7 7
18 19 19 19 20 21 20 20 19 18 18 18 16 14 9 5 5 8 8 4 1 1 6 9 7 5 13 16 19 17 27 20 17 16 11 15 12 15 14 13 6 4 2 5 7 10 8
17 18 19 19 20 21 21 21 21 19 18 17 16 13 9 6 11 11 9 4 3 6 4 7 7 11 15 17 9 18 25 15 15 19 16 16 4 8 4 3 5 7 5 6 5 8 8
16 17 18 19 20 21 22 23 22 21 19 17 14 8 2 7 6 14 11 6 6 7 3 8 7 10 17 15 12 19 22 22 16 17 18 16 14 5 9 9 8 9 10 6 4 4 3
16 17 18 19 19 21 22 23 23 22 20 16 11 0 1 6 11 15 10 7 8 2 2 4 3 8 15 17 13 14 21 21 24 20 15 15 15 14 13 13 8 11 10 7 8 5 9
18 17 18 18 20 21 22 23 24 23 20 15 5 4 2 4 12 13 11 8 3 2 1 3 6 11 12 14 7 13 17 22 24 21 19 14 18 12 8 6 8 8 8 4 11 13 8
19 18 19 18 19 20 22 24 25 22 20 14 1 4 1 6 11 7 8 8 2 1 4 5 8 9 15 17 14 14 15 11 21 23 24 14 10 16 10 8 6 11 3 6 5 4 5
19 18 19 19 19 20 22 24 25 23 19 12 3 5 3 9 9 9 9 4 3 2 4 3 4 7 8 15 18 18 14 4 9 15 20 19 13 9 12 14 14 7 10 10 9 7 7
18 18 18 19 21 21 21 22 24 24 19 10 0 4 2 10 8 4 8 3 1 4 1 3 3 4 8 9 13 14 15 9 6 11 20 20 12 14 15 16 13 21 15 14 9 8 5
17 18 17 18 19 20 20 21 21 22 20 15 5 2 0 6 6 8 3 5 2 5 2 2 3 2 2 6 7 7 6 4 4 12 11 18 12 13 16 12 7 13 12 13 13 4 8
17 18 17 18 19 20 20 20 19 18 16 12 4 3 4 6 3 7 6 7 8 3 2 1 2 4 5 6 2 8 10 6 4 3 4 4 19 17 14 16 15 17 16 17 15 10 8
17 16 18 18 19 19 20 20 18 17 14 7 4 3 2 2 6 6 5 1 9 7 3 2 4 4 5 7 6 6 5 8 6 2 5 8 17 18 17 16 13 10 18 17 16 17 14
16 15 17 16 17 17 18 18 18 17 12 7 5 4 2 2 3 6 6 9 8 5 3 6 6 2 3 3 5 8 5 4 3 4 6 6 9 4 14 18 17 18 19 20 18 19 16
14 14 17 15 17 16 16 17 18 17 12 6 6 5 4 3 3 6 3 2 5 3 2 1 1 3 5 5 4 4 3 2 1 2 3 4 6 9 14 13 14 20 20 20 20 16 16
13 15 15 15 17 15 14 15 15 16 14 8 6 3 5 2 5 3 1 4 4 1 3 1 2 6 3 6 7 7 7 8 8 8 8 4 7 4 10 7 19 12 15 19 21 16 19
10 12 12 14 16 14 12 12 12 12 11 7 7 3 4 4 4 5 5 4 4 4 5 3 1 2 5 5 5 7 8 7 11 13 13 10 7 7 10 13 14 10 9 12 13 20 20
10 10 10 13 14 15 11 10 10 10 9 7 6 3 2 6 2 2 4 5 7 7 5 6 3 3 3 4 6 9 9 11 11 8 9 13 12 9 9 14 17 12 10 2 9 13 2
10 9 9 11 13 14 9 7 7 7 7 6 5 5 2 6 1 4 3 3 2 4 5 2 5 5 5 6 9 11 12 6 11 15 7 12 11 16 14 14 11 11 3 4 14 3 5
10 8 10 10 12 13 8 6 5 5 5 5 3 4 4 4 7 6 6 6 4 7 6 5 5 7 6 8 7 6 8 10 14 13 15 13 10 13 14 18 22 3 5 12 4 6 4
11 8 10 10 11 11 8 6 4 5 6 6 3 6 6 5 5 7 11 12 12 10 9 7 5 1 3 6 4 4 5 4 11 14 13 12 16 11 12 10 6 2 5 8 5 6 6
Wind_Direction
8 2 358 357 358 355 351 346 343 340 335 329 322 316 312 310 305 298 288 285 282 277 270 274 245 214 194 217 212 179 177 171 173 172 178 180 195 226 300 233 209 221 119 128 133 139 141
10 9 8 6 356 350 347 344 341 340 337 333 329 324 319 313 308 299 290 279 277 272 262 260 232 206 189 222 216 197 184 176 174 176 189 196 168 257 288 317 225 187 160 130 143 146 142
14 12 7 1 354 349 347 345 342 340 336 333 331 329 324 319 312 299 290 279 273 266 256 245 226 203 217 206 214 203 186 178 177 176 187 214 238 291 54 124 102 146 142 136 149 153 150
12 7 1 356 355 353 351 350 348 344 340 337 336 333 326 320 312 305 294 283 271 260 247 231 216 183 230 221 202 177 167 175 179 176 182 212 214 236 237 134 163 192 176 167 157 168 162
13 9 5 2 358 356 354 352 348 344 340 335 335 333 327 323 317 309 298 285 274 253 233 207 189 184 189 202 188 176 174 176 177 183 193 190 216 259 177 218 180 199 247 248 172 192 157
13 9 6 3 0 356 352 349 346 341 336 332 332 329 325 322 320 310 300 284 253 208 190 176 189 210 205 191 184 179 176 179 173 182 196 209 217 165 223 211 219 126 224 215 253 196 216
9 8 5 2 359 356 352 347 343 338 332 330 329 327 326 322 321 305 257 138 201 194 207 224 174 113 146 164 165 179 176 175 185 195 206 196 213 206 203 204 182 182 266 314 215 75 259
5 4 3 3 359 354 351 346 342 336 332 330 328 327 326 322 318 258 186 225 255 234 262 229 227 223 173 166 169 183 175 178 190 200 208 182 230 158 124 201 210 233 249 123 259 141 232
360 359 358 358 358 356 351 347 344 339 333 329 328 325 326 320 304 190 189 207 251 349 252 182 204 217 198 190 195 177 182 197 194 208 196 224 226 151 196 192 234 221 271 47 259 193 228
355 354 353 354 355 355 353 347 344 340 333 329 327 323 325 319 160 180 179 197 298 359 255 149 190 194 184 190 208 190 188 189 209 209 209 231 131 181 199 228 221 256 60 260 194 211 245
350 350 349 349 351 353 351 347 344 340 334 330 326 319 313 263 194 176 198 199 270 240 229 135 146 179 168 190 137 186 191 210 216 214 190 207 206 220 240 249 217 34 177 230 217 238 285
348 350 348 347 348 350 349 347 345 341 336 333 326 317 305 249 207 195 179 184 171 226 210 142 139 174 172 197 186 151 184 214 234 223 211 243 177 243 282 88 213 134 166 189 214 262 242
348 348 348 346 346 348 347 346 346 344 337 336 327 321 308 174 178 179 172 166 212 247 141 153 167 180 192 181 173 169 183 197 195 204 210 212 211 151 176 128 159 206 218 253 210 206 245
344 346 346 345 345 346 346 346 346 346 340 340 331 180 116 180 173 170 172 213 239 49 203 124 175 178 197 181 194 193 190 200 212 211 217 212 189 197 186 228 204 217 296 296 310 288 324
346 346 347 345 346 347 347 347 347 349 343 344 338 148 120 187 173 174 207 217 306 174 32 209 171 186 191 190 217 195 207 210 205 215 223 209 229 157 190 186 239 151 230 307 284 243 256
346 349 349 349 348 350 349 349 347 350 347 344 90 157 175 159 164 175 226 249 187 316 322 219 225 216 191 192 200 203 189 214 209 204 232 227 243 188 162 184 205 260 51 222 213 283 296
345 348 348 350 350 351 350 349 349 350 353 349 137 203 193 148 157 204 226 213 201 161 331 257 220 198 232 183 204 198 190 136 209 195 220 233 210 187 178 216 223 178 221 234 287 282 308
343 345 345 344 345 347 350 352 351 352 358 6 316 219 202 168 212 222 230 210 219 197 274 237 268 292 221 201 204 206 216 194 185 208 204 219 224 225 204 235 240 249 232 230 241 183 237
344 342 344 343 344 346 349 353 355 355 360 4 327 278 277 185 234 210 160 191 236 221 196 258 213 292 222 191 190 208 177 122 183 201 214 207 221 237 212 169 201 226 219 249 247 298 275
344 342 344 345 344 346 348 353 358 357 358 359 316 222 176 205 289 284 209 204 190 159 177 282 271 237 199 183 249 172 161 150 135 202 309 281 230 226 234 226 201 207 215 213 234 239 241
341 345 344 350 347 347 347 352 359 2 358 14 351 67 335 189 195 245 247 3 212 196 199 223 200 254 239 195 174 161 170 151 161 112 200 227 235 241 243 257 244 222 220 208 227 250 268
345 346 340 349 348 350 350 353 357 6 9 38 345 332 311 278 260 236 175 214 232 163 265 184 252 192 239 249 354 153 175 229 125 160 188 202 242 247 245 242 244 248 236 245 225 240 259
349 350 337 350 347 348 351 356 0 10 24 42 7 343 305 132 236 241 222 224 205 214 140 3 294 245 175 78 8 1 330 297 297 267 184 233 231 217 237 218 238 234 237 244 240 227 240
352 344 338 349 349 347 351 355 3 12 27 39 12 347 284 218 254 269 295 264 234 176 277 167 291 261 51 311 284 257 252 250 250 243 241 234 220 230 253 204 236 245 235 221 241 232 232
333 335 333 337 343 344 348 352 359 12 22 34 25 26 317 278 298 224 232 239 224 207 216 248 117 7 317 285 251 237 217 232 227 228 220 226 257 245 238 235 253 231 223 228 237 237 237
314 318 320 327 329 338 342 348 350 3 19 40 24 34 329 301 116 323 250 249 251 232 201 212 237 298 287 258 226 229 222 219 212 163 238 211 229 255 227 249 249 249 224 157 264 246 355
339 328 319 320 324 332 332 340 342 348 9 40 21 34 3 282 255 246 255 290 227 235 266 132 207 214 225 220 230 232 233 233 232 207 177 195 213 223 226 239 245 246 91 230 218 164 37
335 330 320 316 320 325 322 326 325 322 345 26 313 5 10 292 285 257 243 232 226 240 245 121 201 200 200 227 233 207 248 205 245 249 212 201 205 213 233 238 234 71 196 239 59 94 46
327 321 305 310 319 322 314 312 303 294 312 345 326 330 317 271 286 269 255 248 241 242 266 218 344 309 249 239 215 270 226 249 236 228 206 241 229 248 217 226 122 129 118 115 99 113 75